Regional Weather Roundup
Issued by NWS

Home | Current Version | Previous Version | Graphics & Text | Print | Product List | Glossary On
Versions: 1 2 3 4 5 6 7 8 9 10 11 12 13 14 15 16 17 18 19 20 21 22 23 24 25 26 27 28 29 30 31 32 33 34 35 36 37 38 39 40 41 42 43 44 45 46 47 48 49 50
000
ASUS43 KLSX 211707
RWRMO

WEATHER SUMMARY FOR MISSOURI
NATIONAL WEATHER SERVICE SPRINGFIELD MO
1200 PM CDT FRI JUL 21 2017

NOTE: "FAIR" INDICATES FEW OR NO CLOUDS BELOW 12,000 FEET WITH NO
       SIGNIFICANT WEATHER AND/OR OBSTRUCTIONS TO VISIBILITY.
       CURRENT SKY AND/OR WEATHER CONDITIONS ARE NOT AVAILABLE FOR
       CHILLICOTHE AND FARMINGTON.

MOZ001>031-035>038-043-044-053-054-211800-
...NORTHERN AND WESTERN MISSOURI...

CITY           SKY/WX    TMP DP  RH WIND       PRES   REMARKS
KANSAS CTY INT MOSUNNY   92  75  57 S15       29.93F HX 103
KANSAS C DTWN  SUNNY     94  74  52 SW14      29.92S HX 104
LEE`S SUMMIT   SUNNY     93  74  53 S15G24    29.96S HX 103
ST JOSEPH      SUNNY     91  79  67 S12       29.89F HX 107
CHILLICOTHE      N/A     91  79  67 S9        29.93F HX 107
KIRKSVILLE     SUNNY     91  76  61 S10       29.95F HX 103

$$
MOZ066>068-077>081-088>096-101>105-211800-
...SOUTHWEST MISSOURI...

CITY           SKY/WX    TMP DP  RH WIND       PRES   REMARKS
SPRINGFIELD    SUNNY     92  72  51 W10       30.04S HX  99
JOPLIN         SUNNY     93  75  55 S15G23    30.01F HX 104
BRANSON        MOSUNNY   91  72  52 W3        30.07S HX  98

$$
MOZ032>034-039>042-045>050-055>058-069>072-211800-
...CENTRAL MISSOURI...

CITY           SKY/WX    TMP DP  RH WIND       PRES   REMARKS
COLUMBIA       SUNNY     94  74  52 S8        29.99F HX 104
JEFFERSON CITY SUNNY     93  76  57 SW6       29.98F HX 105
ROLLA          SUNNY     90  74  59 W7        30.03  HX  99
WHITEMAN AFB   SUNNY     93  76  57 SW15      29.96S HX 105
WARRENSBURG    SUNNY     91  72  52 S7        29.96S HX  98
OSAGE BEACH    SUNNY     93  73  52 VRB5      30.02S HX 102

$$
MOZ051-052-059>065-211800-
...EAST CENTRAL MISSOURI...

CITY           SKY/WX    TMP DP  RH WIND       PRES   REMARKS
ST LOUIS INTL  MOSUNNY   98  72  42 W10       29.99F HX 107
SPIRIT OF STL  MOSUNNY   96  73  47 W10       29.98S HX 105
ST CHARLES     SUNNY     93  74  53 W3        29.97F HX 103

$$
MOZ072>076-082>087-097>100-106>115-211800-
...SOUTH CENTRAL AND SOUTHEAST MISSOURI...

CITY           SKY/WX    TMP DP  RH WIND       PRES   REMARKS
CAPE GIRARDEAU SUNNY     94  76  55 W6        29.99F HX 106
FARMINGTON     SUNNY     95  74  50 SW6       30.04S HX 105
POPLAR BLUFF   SUNNY     91  80  70 SW6       30.01S HX 109
WEST PLAINS    SUNNY     92  71  50 VRB6      30.06F HX  98

$$



USA.gov is the U.S. government's official web portal to all federal, state and local government web resources and services.